Location: LDNL
(36.4545°S, 141.6685°E)
Time: 11:27:09
(UTC+10:00)

Tiros 1 despin weight - Pass Details

Date: 13 August 2022
Orbit: 590 x 639 km, 48.2° (Epoch: 23 September)

Event Time Altitude Azimuth Distance (km) Brightness Sun altitude
Rises 22:16:53 0° 341° (NNW) 2,858 - -51.7°
Reaches altitude 10° 22:19:32 10° 356° (N) 1,971 - -52.2°
Maximum altitude 22:23:06 23° 48° (NE) 1,333 - -52.8°
Drops below altitude 10° 22:26:44 10° 99° (E) 2,014 - -53.4°
Sets 22:29:27 0° 113° (ESE) 2,936 - -53.9°
